{"data":{"norad_id":68350,"epoch":"2026-05-25T09:17:02.202720Z","epoch_age_seconds":41785,"freshness":"FRESH","line1":"1 68350U 26060A   26145.38683105  .00000289  00000+0  76591-4 0  9998","line2":"2 68350  54.9795 129.1423 0010637  57.9923 302.2108 14.72821798  9405","mean_motion":14.72821798,"eccentricity":0.0010637,"inclination_deg":54.9795,"raan_deg":129.1423,"arg_perigee_deg":57.9923,"mean_anomaly_deg":302.2108,"bstar":7.6591e-5,"rev_number":940,"period_min":97.771502428565,"perigee_km":644.59617000948,"apogee_km":659.55224132842,"semimajor_km":7030.211205669,"source":"CELESTRAK","updated_at":"2026-05-25T13:38:07.760100Z"}}